Location: Aranbee
(34.0885°N, 118.2342°W)
Time: 22:25:44
(UTC+00:00)

Explorer 7 - Pass Details

Date: 03 August 2021
Orbit: 484 x 676 km, 50.3° (Epoch: 15 September)

Event Time Altitude Azimuth Distance (km) Brightness Sun altitude
Exits shadow 10:09:20 12° 88° (E) 1,560 9.5 -29.9°
Drops below altitude 10° 10:09:43 10° 83° (E) 1,665 9.7 -29.9°
Sets 10:12:21 0° 65° (ENE) 2,564 11.1 -29.5°
